GW2276 Weather Reports


time (UTC)temp
C
wind
direction
speed
KPH
gust
KPH
rain 1hr
cm
rain 24hr
cm
rain mn
cm
humidity
%
barometer
mb
20260509113537 9 192 3.2 11.3 0.10 0.46 0.10 91 1008.5
20260509113043 8 217 3.2 11.3 0.08 0.43 0.08 90 1008.5
20260509112536 8 229 4.8 11.3 0.08 0.43 0.08 90 1008.6
20260509112036 8 219 3.2 8.0 0.05 0.41 0.05 90 1008.4
20260509111551 8 148 1.6 8.0 0.05 0.41 0.05 90 1008.4
20260509111053 9 186 1.6 8.0 0.03 0.38 0.03 89 1008.5
20260509110535 9 193 1.6 14.5 0.03 0.38 0.03 89 1008.3
20260509110048 9 169 3.2 14.5 0.03 0.38 0.03 89 1008.5
20260509105540 9 210 1.6 6.4 0.00 0.36 0.00 88 1008.5
20260509105036 9 166 1.6 9.7 0.00 0.36 0.00 88 1008.3
20260509104543 9 205 3.2 9.7 0.00 0.36 0.00 88 1008.2
20260509104037 9 203 3.2 11.3 0.00 0.36 0.00 87 1008.2
20260509103537 9 162 3.2 11.3 0.00 0.36 0.00 87 1008.2
20260509103054 9 165 3.2 14.5 0.00 0.36 0.00 87 1008.0
20260509102537 8 212 3.2 14.5 0.00 0.36 0.00 88 1008.0
20260509102037 8 210 4.8 11.3 0.00 0.36 0.00 89 1008.0
20260509101601 8 202 0.0 4.8 0.00 0.36 0.00 89 1008.0
20260509101036 7 253 0.0 4.8 0.00 0.36 0.00 88 1008.0
20260509100536 7 0 0.0 6.4 0.00 0.36 0.00 86 1008.1
20260509100045 7 0 1.6 6.4 0.00 0.36 0.00 87 1008.1
20260509095536 7 215 0.0 1.6 0.00 0.36 0.00 87 1008.1
20260509095036 7 212 0.0 1.6 0.00 0.36 0.00 86 1008.2
20260509094553 7 0 0.0 1.6 0.00 0.36 0.00 86 1008.2
20260509094039 7 0 0.0 1.6 0.00 0.36 0.00 86 1008.2
20260509093537 7 191 0.0 1.6 0.00 0.36 0.00 86 1008.2
20260509093050 7 0 0.0 3.2 0.00 0.36 0.00 86 1008.2
20260509092536 7 0 0.0 6.4 0.00 0.36 0.00 85 1008.3
20260509092036 7 149 1.6 6.4 0.00 0.36 0.00 85 1008.3
20260509091549 7 145 0.0 4.8 0.00 0.36 0.00 85 1008.0
20260509091039 7 134 1.6 3.2 0.00 0.36 0.00 85 1007.9
20260509090540 7 221 0.0 1.6 0.00 0.36 0.00 85 1008.1
20260509090100 7 0 0.0 1.6 0.00 0.36 0.00 84 1008.0
20260509085537 7 225 0.0 1.6 0.00 0.36 0.00 84 1008.2
20260509085036 7 0 0.0 3.2 0.00 0.36 0.00 84 1008.1
20260509084550 7 0 0.0 3.2 0.00 0.36 0.00 83 1008.2
20260509084035 7 0 0.0 3.2 0.00 0.36 0.00 83 1008.2
20260509083536 7 0 0.0 4.8 0.00 0.36 0.00 83 1008.4
20260509083053 7 0 0.0 4.8 0.00 0.36 0.00 83 1008.6
20260509082536 7 193 1.6 4.8 0.00 0.36 0.00 84 1008.5
20260509082036 7 198 0.0 3.2 0.00 0.36 0.00 83 1008.5
20260509081548 7 219 0.0 1.6 0.00 0.36 0.00 83 1008.5
20260509081036 7 0 0.0 1.6 0.00 0.36 0.00 83 1008.6
20260509080536 7 159 0.0 1.6 0.00 0.36 0.00 83 1008.6
20260509080045 6 0 0.0 1.6 0.00 0.36 0.00 82 1008.6
20260509075537 6 136 0.0 1.6 0.00 0.36 0.00 81 1008.7
20260509075036 6 0 0.0 0.0 0.00 0.36 0.00 80 1008.9
20260509074544 6 0 0.0 0.0 0.00 0.36 0.00 81 1008.8
20260509074036 6 0 0.0 1.6 0.00 0.36 0.00 82 1008.7
20260509073539 6 0 0.0 1.6 0.00 0.36 0.00 82 1008.9
20260509073039 6 0 0.0 0.0 0.00 0.36 0.00 83 1008.9
20260509072536 6 0 0.0 1.6 0.00 0.36 0.00 83 1008.8
20260509072036 5 0 0.0 1.6 0.00 0.36 0.00 84 1008.9
20260509071545 5 0 0.0 1.6 0.00 0.36 0.00 84 1008.9
20260509071036 5 0 0.0 0.0 0.00 0.36 0.00 84 1009.0
20260509070536 5 0 0.0 0.0 0.00 0.36 0.00 84 1009.2
20260509070043 5 0 0.0 1.6 0.00 0.36 0.00 84 1009.3
20260509065537 5 0 0.0 1.6 0.00 0.36 0.00 82 1009.3
20260509065036 5 0 0.0 0.0 0.00 0.36 0.00 82 1009.5
20260509064541 5 0 0.0 0.0 0.00 0.36 0.00 82 1009.4
20260509064040 5 0 0.0 0.0 0.00 0.36 0.00 81 1009.5
20260509063538 5 0 0.0 0.0 0.00 0.36 0.00 81 1009.5
20260509063043 5 0 0.0 0.0 0.00 0.36 0.00 80 1009.5
20260509062536 5 0 0.0 0.0 0.00 0.36 0.00 80 1009.6
20260509062033 5 0 0.0 0.0 0.00 0.36 0.00 80 1009.7
20260509061547 5 0 0.0 0.0 0.00 0.36 0.00 80 1009.7
20260509061036 6 169 0.0 0.0 0.00 0.36 0.00 79 1009.8
20260509060536 6 0 0.0 1.6 0.00 0.36 0.00 79 1009.8
20260509060057 6 0 0.0 1.6 0.00 0.36 0.00 77 1009.8
20260509055536 6 141 0.0 1.6 0.00 0.36 0.00 77 1009.9
20260509055037 6 0 0.0 0.0 0.00 0.36 0.00 76 1010.0
20260509054549 6 0 0.0 0.0 0.00 0.36 0.00 76 1009.7
20260509054040 6 0 0.0 0.0 0.00 0.36 0.00 75 1010.1
20260509053537 6 0 0.0 0.0 0.00 0.36 0.00 75 1010.3
20260509053110 6 0 0.0 0.0 0.00 0.36 0.00 76 1010.3
20260509052540 5 0 0.0 0.0 0.00 0.36 0.00 75 1010.3
20260509052038 5 0 0.0 0.0 0.00 0.36 0.00 75 1010.3
20260509051547 5 0 0.0 0.0 0.00 0.36 0.00 75 1010.2
20260509051036 5 0 0.0 0.0 0.00 0.36 0.00 75 1010.4
20260509050536 5 0 0.0 0.0 0.00 0.36 0.00 74 1010.4
20260509050043 5 0 0.0 0.0 0.00 0.36 0.00 75 1010.3
20260509045536 5 0 0.0 0.0 0.00 0.36 0.00 74 1010.4
20260509045036 5 0 0.0 0.0 0.00 0.36 0.00 74 1010.4
20260509044609 5 0 0.0 0.0 0.00 0.36 0.00 74 1010.4
20260509044036 5 0 0.0 0.0 0.00 0.36 0.00 74 1010.4
20260509043535 5 0 0.0 0.0 0.00 0.36 0.00 74 1010.3
20260509043125 5 0 0.0 0.0 0.00 0.36 0.00 74 1010.4
20260509042537 5 0 0.0 0.0 0.00 0.36 0.00 73 1010.4
20260509042037 5 0 0.0 1.6 0.00 0.36 0.00 72 1010.4
20260509041549 5 0 0.0 1.6 0.00 0.36 0.00 73 1010.4
20260509041036 5 0 0.0 1.6 0.00 0.36 0.00 73 1010.4
20260509040535 5 0 0.0 0.0 0.00 0.36 0.00 72 1010.4
20260509040044 5 0 0.0 0.0 0.00 0.36 0.00 72 1010.4
20260509035534 5 0 0.0 0.0 0.00 0.36 0.36 72 1010.3
20260509035035 5 0 0.0 0.0 0.00 0.36 0.36 72 1010.4
20260509034549 5 0 0.0 0.0 0.00 0.36 0.36 72 1010.5
20260509034036 5 0 0.0 0.0 0.00 0.36 0.36 72 1010.5
20260509033536 5 0 0.0 0.0 0.00 0.36 0.36 72 1010.5
20260509033050 6 0 0.0 0.0 0.00 0.36 0.36 72 1010.5
20260509032536 6 0 0.0 1.6 0.00 0.36 0.36 72 1010.5
20260509032035 6 0 0.0 1.6 0.00 0.36 0.36 72 1010.5
20260509031559 6 0 0.0 1.6 0.00 0.36 0.36 71 1010.4
20260509031037 6 122 0.0 1.6 0.00 0.36 0.36 70 1010.4
20260509030536 6 0 0.0 1.6 0.00 0.36 0.36 69 1010.5
20260509030108 6 0 0.0 1.6 0.00 0.36 0.36 69 1010.4
20260509025536 6 0 0.0 1.6 0.00 0.36 0.36 69 1010.5
20260509025038 6 0 0.0 1.6 0.00 0.36 0.36 69 1010.5
20260509024546 6 0 0.0 1.6 0.00 0.36 0.36 70 1010.5
20260509024036 6 0 0.0 1.6 0.00 0.36 0.36 69 1010.5
20260509023537 6 131 0.0 1.6 0.00 0.36 0.36 68 1010.6
20260509023048 6 0 0.0 1.6 0.00 0.36 0.36 67 1010.6
20260509022536 7 145 0.0 1.6 0.00 0.36 0.36 66 1010.7
20260509022036 7 0 0.0 1.6 0.00 0.36 0.36 66 1010.8
20260509021556 7 0 0.0 1.6 0.00 0.36 0.36 67 1010.7
20260509021037 7 0 0.0 1.6 0.00 0.36 0.36 68 1010.8
20260509020537 7 0 0.0 0.0 0.00 0.36 0.36 67 1010.8
20260509020042 7 0 0.0 0.0 0.00 0.36 0.36 66 1010.9
20260509015536 7 0 0.0 1.6 0.00 0.36 0.36 67 1010.8
20260509015036 7 0 0.0 1.6 0.00 0.36 0.36 67 1010.7
20260509014542 6 0 0.0 1.6 0.00 0.36 0.36 68 1010.7
20260509014037 6 187 0.0 0.0 0.00 0.36 0.36 68 1010.6
20260509013536 6 0 0.0 0.0 0.00 0.36 0.36 68 1010.6
20260509013040 6 0 0.0 0.0 0.00 0.36 0.36 68 1010.6
20260509012536 6 0 0.0 0.0 0.00 0.36 0.36 68 1010.6
20260509012036 6 0 0.0 0.0 0.00 0.36 0.36 68 1010.6
20260509011545 6 0 0.0 0.0 0.00 0.36 0.36 68 1010.3
20260509011036 6 0 0.0 0.0 0.00 0.36 0.36 67 1010.3
20260509010536 6 0 0.0 0.0 0.00 0.36 0.36 67 1010.3
20260509010043 6 0 0.0 0.0 0.00 0.36 0.36 66 1010.1
20260509005536 7 0 0.0 0.0 0.00 0.36 0.36 66 1010.0
20260509005035 7 0 0.0 0.0 0.00 0.36 0.36 65 1010.0
20260509004552 7 0 0.0 0.0 0.00 0.36 0.36 64 1010.0
20260509004033 7 0 0.0 0.0 0.00 0.36 0.36 64 1009.9
20260509003533 7 0 0.0 0.0 0.00 0.36 0.36 63 1010.0
20260509003049 8 0 0.0 0.0 0.00 0.36 0.36 62 1009.9
20260509002532 8 0 0.0 0.0 0.00 0.36 0.36 61 1009.8
20260509002035 8 0 0.0 0.0 0.00 0.36 0.36 61 1009.8
20260509001540 9 0 0.0 0.0 0.00 0.36 0.36 61 1009.8
20260509001036 9 0 0.0 0.0 0.00 0.36 0.36 59 1009.9
20260509000537 10 0 0.0 1.6 0.00 0.36 0.36 58 1009.9
20260509000047 10 0 0.0 1.6 0.00 0.36 0.36 56 1009.9
20260508235532 11 0 0.0 1.6 0.00 0.36 0.36 55 1009.9
20260508235036 11 0 0.0 3.2 0.00 0.36 0.36 52 1009.9
20260508234543 11 0 0.0 4.8 0.00 0.36 0.36 53 1009.9
20260508234036 12 0 0.0 4.8 0.00 0.36 0.36 53 1009.8
20260508233536 12 0 0.0 3.2 0.00 0.36 0.36 55 1009.7
20260508233041 12 0 0.0 4.8 0.00 0.36 0.36 55 1009.7
20260508232537 11 0 0.0 4.8 0.00 0.36 0.36 55 1009.7
20260508232035 11 54 1.6 4.8 0.00 0.36 0.36 53 1009.6
20260508231542 12 49 0.0 4.8 0.00 0.36 0.36 53 1009.5
20260508231033 12 60 1.6 4.8 0.00 0.36 0.36 52 1009.5
20260508230535 12 0 0.0 1.6 0.00 0.36 0.36 54 1009.5
20260508230042 12 0 0.0 1.6 0.00 0.36 0.36 54 1009.4
20260508225537 12 0 0.0 11.3 0.00 0.36 0.36 53 1009.6
20260508225037 12 298 0.0 11.3 0.00 0.36 0.36 53 1009.6
20260508224550 12 38 0.0 6.4 0.00 0.36 0.36 50 1009.5
20260508224035 12 0 1.6 6.4 0.00 0.36 0.36 45 1009.6
20260508223536 12 356 1.6 6.4 0.00 0.36 0.36 44 1009.6
20260508223050 12 325 3.2 6.4 0.00 0.36 0.36 44 1009.7
20260508222533 12 333 3.2 8.0 0.00 0.36 0.36 43 1009.7
20260508222035 12 15 3.2 11.3 0.00 0.36 0.36 44 1009.6
20260508221548 13 315 3.2 11.3 0.00 0.36 0.36 43 1009.6
20260508221036 13 323 4.8 11.3 0.00 0.36 0.36 42 1009.5
20260508220536 13 60 4.8 11.3 0.00 0.36 0.36 41 1009.4
20260508220054 13 22 1.6 6.4 0.00 0.36 0.36 42 1009.5
20260508215535 13 333 3.2 8.0 0.00 0.36 0.36 42 1009.6
20260508215032 13 303 3.2 8.0 0.00 0.36 0.36 43 1009.6
20260508214539 13 278 4.8 9.7 0.00 0.36 0.36 44 1009.6
20260508214036 13 316 3.2 9.7 0.00 0.36 0.36 41 1009.7
20260508213535 13 51 0.0 6.4 0.00 0.36 0.36 47 1009.7
20260508213045 12 315 3.2 6.4 0.00 0.36 0.36 47 1009.8
20260508212535 12 302 1.6 6.4 0.00 0.36 0.36 47 1009.9
20260508212037 12 319 3.2 9.7 0.00 0.36 0.36 45 1010.0
20260508211553 12 331 3.2 9.7 0.00 0.36 0.36 46 1010.0
20260508211035 12 34 4.8 11.3 0.00 0.36 0.36 45 1009.9
20260508210536 12 330 4.8 12.9 0.00 0.36 0.36 47 1010.0
20260508210051 12 304 4.8 12.9 0.00 0.36 0.36 48 1010.0
20260508205541 12 340 1.6 11.3 0.00 0.36 0.36 48 1010.0
20260508205035 12 355 3.2 11.3 0.00 0.36 0.36 49 1010.0
20260508204549 12 351 6.4 11.3 0.00 0.36 0.36 44 1009.9
20260508204035 12 281 3.2 12.9 0.00 0.36 0.36 46 1010.1
20260508203535 13 326 4.8 12.9 0.00 0.36 0.36 44 1010.0
20260508203058 13 308 4.8 11.3 0.00 0.36 0.36 45 1010.1
20260508202535 12 340 4.8 11.3 0.00 0.36 0.36 49 1010.0
20260508202036 12 309 6.4 11.3 0.00 0.36 0.36 47 1010.1
20260508201543 12 309 4.8 9.7 0.00 0.36 0.36 51 1010.1
20260508201035 12 15 3.2 11.3 0.00 0.36 0.36 48 1010.2
20260508200535 12 272 4.8 11.3 0.00 0.36 0.36 47 1010.1
20260508200049 12 297 4.8 11.3 0.00 0.36 0.36 48 1010.2
20260508195538 11 274 4.8 11.3 0.00 0.38 0.36 49 1010.3
20260508195035 12 320 4.8 11.3 0.00 0.38 0.36 50 1010.4
20260508194548 12 310 4.8 11.3 0.00 0.38 0.36 48 1010.4
20260508194038 12 347 3.2 9.7 0.00 0.38 0.36 57 1010.5
20260508193537 11 32 3.2 11.3 0.00 0.38 0.36 53 1010.7
20260508193048 11 316 1.6 11.3 0.00 0.38 0.36 55 1010.7
20260508192539 11 296 4.8 9.7 0.00 0.38 0.36 53 1010.9
20260508192037 11 25 6.4 9.7 0.00 0.38 0.36 54 1010.9
20260508191550 11 329 3.2 6.4 0.00 0.38 0.36 60 1010.9
20260508191037 11 344 0.0 6.4 0.00 0.38 0.36 61 1010.8
20260508190537 10 290 1.6 8.0 0.00 0.38 0.36 59 1010.9
20260508190047 11 16 4.8 9.7 0.00 0.38 0.36 59 1010.9
20260508185537 11 320 3.2 11.3 0.00 0.38 0.36 59 1011.0
20260508185037 11 323 4.8 11.3 0.00 0.38 0.36 60 1010.9
20260508184545 11 314 6.4 12.9 0.00 0.38 0.36 58 1010.9
20260508184037 11 309 4.8 14.5 0.00 0.38 0.36 56 1011.0
20260508183538 12 263 8.0 14.5 0.00 0.38 0.36 60 1011.2
20260508183048 11 208 1.6 11.3 0.00 0.38 0.36 60 1011.1
20260508182538 11 338 4.8 11.3 0.00 0.38 0.36 56 1011.2
20260508182037 11 139 4.8 8.0 0.00 0.38 0.36 61 1011.2
20260508181553 11 174 3.2 8.0 0.00 0.38 0.36 64 1011.2
20260508181037 10 232 0.0 9.7 0.00 0.38 0.36 60 1011.3
20260508180537 10 181 3.2 9.7 0.00 0.38 0.36 63 1011.3
20260508180049 10 280 3.2 9.7 0.00 0.38 0.36 62 1011.4
20260508175537 10 356 4.8 9.7 0.00 0.38 0.36 63 1011.6
20260508175038 10 159 3.2 12.9 0.00 0.38 0.36 64 1011.7
20260508174553 10 255 4.8 12.9 0.00 0.38 0.36 65 1011.8
20260508174037 10 295 4.8 11.3 0.00 0.38 0.36 63 1011.9
20260508173537 10 226 4.8 11.3 0.00 0.38 0.36 65 1011.9
20260508173042 10 252 1.6 8.0 0.00 0.38 0.36 68 1011.8
20260508172538 10 246 3.2 8.0 0.00 0.38 0.36 68 1011.9
20260508172037 9 217 3.2 8.0 0.00 0.38 0.36 70 1011.9
20260508171542 8 205 3.2 8.0 0.00 0.38 0.36 70 1012.1
20260508171037 8 219 3.2 8.0 0.00 0.38 0.36 68 1012.1
20260508170537 8 351 3.2 8.0 0.00 0.38 0.36 69 1012.1
20260508170049 8 263 1.6 8.0 0.00 0.38 0.36 70 1012.0
20260508165537 8 262 1.6 8.0 0.00 0.38 0.36 71 1012.0
20260508165038 8 255 1.6 6.4 0.00 0.38 0.36 70 1012.0
20260508164553 8 282 0.0 6.4 0.00 0.38 0.36 72 1012.1
20260508164037 8 295 3.2 6.4 0.00 0.38 0.36 67 1012.3
20260508163537 8 241 1.6 8.0 0.00 0.38 0.36 69 1012.3
20260508163043 8 241 0.0 8.0 0.00 0.38 0.36 71 1012.4
20260508162537 8 345 1.6 4.8 0.00 0.38 0.36 75 1012.4
20260508162037 8 323 3.2 6.4 0.00 0.38 0.36 73 1012.4
20260508161555 7 326 3.2 6.4 0.00 0.38 0.36 76 1012.4
20260508161037 7 274 1.6 9.7 0.00 0.38 0.36 77 1012.4
20260508160540 7 291 3.2 9.7 0.00 0.38 0.36 79 1012.4
20260508160042 7 243 1.6 9.7 0.00 0.38 0.36 79 1012.4
20260508155536 7 216 3.2 6.4 0.00 0.38 0.36 78 1012.3
20260508155037 6 243 1.6 4.8 0.00 0.38 0.36 80 1012.3
20260508154607 6 258 3.2 4.8 0.00 0.38 0.36 79 1012.2
20260508154037 6 232 3.2 4.8 0.00 0.38 0.36 81 1012.3
20260508153537 6 162 1.6 4.8 0.00 0.38 0.36 82 1012.4
20260508153048 6 209 1.6 4.8 0.00 0.38 0.36 82 1012.3
20260508152537 6 0 0.0 3.2 0.00 0.38 0.36 84 1012.4
20260508152037 6 0 0.0 1.6 0.00 0.38 0.36 85 1012.3
20260508151543 6 227 0.0 3.2 0.03 0.38 0.36 82 1012.4
20260508151038 6 0 1.6 3.2 0.03 0.38 0.36 83 1012.4
20260508150536 6 96 0.0 3.2 0.03 0.38 0.36 83 1012.2
20260508150055 5 229 0.0 3.2 0.05 0.38 0.36 85 1012.3
20260508145540 5 243 0.0 3.2 0.08 0.38 0.36 84 1012.5
20260508145036 5 0 0.0 4.8 0.08 0.38 0.36 86 1012.4
20260508144541 5 193 1.6 4.8 0.08 0.38 0.36 86 1012.5
20260508144039 5 319 0.0 4.8 0.08 0.38 0.36 86 1012.5
20260508143538 5 211 1.6 6.4 0.08 0.38 0.36 88 1012.4
20260508143106 5 217 1.6 6.4 0.08 0.38 0.36 89 1012.3
20260508142536 5 243 0.0 3.2 0.10 0.38 0.36 91 1012.2
20260508142041 4 263 0.0 3.2 0.10 0.38 0.36 91 1012.0
20260508141546 4 227 0.0 3.2 0.10 0.36 0.33 92 1011.9
20260508141037 3 0 0.0 1.6 0.10 0.36 0.33 91 1012.2
20260508140537 3 220 0.0 1.6 0.13 0.36 0.33 90 1012.4
20260508140050 3 231 0.0 1.6 0.10 0.33 0.30 90 1012.5
20260508135537 3 248 0.0 3.2 0.08 0.30 0.28 90 1012.4
20260508135037 3 212 1.6 3.2 0.13 0.30 0.28 90 1012.3
20260508134543 3 236 0.0 3.2 0.15 0.30 0.28 91 1012.1
20260508134036 3 0 0.0 3.2 0.18 0.30 0.28 91 1012.0
20260508133537 3 200 0.0 3.2 0.20 0.30 0.28 91 1012.1
20260508133059 3 138 0.0 1.6 0.23 0.30 0.28 91 1012.1
20260508132536 3 0 0.0 3.2 0.23 0.28 0.25 91 1012.2
20260508132038 3 156 0.0 3.2 0.23 0.28 0.25 90 1012.2
20260508131546 3 241 0.0 4.8 0.23 0.25 0.23 90 1012.3
20260508131038 3 139 0.0 6.4 0.23 0.25 0.23 90 1012.3
20260508130536 3 228 1.6 8.0 0.20 0.23 0.20 89 1012.1
20260508130046 3 176 1.6 12.9 0.20 0.23 0.20 88 1012.0
20260508125538 3 148 3.2 12.9 0.20 0.23 0.20 88 1012.0
20260508125037 3 226 1.6 4.8 0.15 0.18 0.15 88 1011.9
20260508124541 3 264 1.6 6.4 0.13 0.15 0.13 88 1011.9
20260508124036 3 330 0.0 11.3 0.10 0.13 0.10 88 1011.9
20260508123536 3 310 1.6 12.9 0.08 0.10 0.08 87 1011.7
20260508123041 4 338 4.8 12.9 0.05 0.08 0.05 86 1011.7
20260508122536 4 344 6.4 12.9 0.03 0.05 0.03 86 1011.6
20260508122037 5 238 3.2 6.4 0.00 0.03 0.00 88 1011.4
20260508121549 5 356 1.6 6.4 0.00 0.03 0.00 88 1011.4
20260508121037 5 163 3.2 6.4 0.00 0.03 0.00 88 1011.1
20260508120536 5 224 1.6 6.4 0.00 0.03 0.00 88 1010.9
20260508120044 5 227 1.6 4.8 0.00 0.03 0.00 88 1010.7
20260508115538 5 0 0.0 1.6 0.00 0.03 0.00 88 1010.4
20260508115037 5 192 0.0 1.6 0.00 0.03 0.00 88 1010.2
20260508114548 5 0 0.0 0.0 0.00 0.03 0.00 88 1010.3
20260508114037 5 0 0.0 0.0 0.00 0.03 0.00 88 1010.4